フォーブズ彗星

37P/Forbes (2018)

English version
Home page
Updated on November 20, 2018

---------------------------------------------------------------------

・ プロフィール

・ 写真集

・ 軌道要素

Epoch 2018 May 2.0 TT = JDT 2458240.5
T 2018 May 4.12416 TT                                   MPCW
q   1.6102877            (2000.0)            P               Q
n   0.15337273     Peri.  329.98006     +0.25591853     +0.96031958
a   3.4565058      Node   314.59063     -0.85306222     +0.17039448
e   0.5341285      Incl.    8.95650     -0.45474229     +0.22079862
P   6.43
From 688 observations 1993 May 27-2018 Apr. 28, mean residual 0".8.
     Nongravitational parameters A1 = +0.56, A2 = -0.0287.

・ 星図

・ 光度変化

        m1 = 7.2 + 5 logΔ + 25 log r

---------------------------------------------------------------------

軌道要素はM.P.E.C. 2018-H105に掲載されたものです。
星図はステラナビゲータ Ver.8 (アストロアーツ) で作成したものです。
光度グラフはComet for Windowsで作成したものです。

---------------------------------------------------------------------

Copyright(C) Seiichi Yoshida (comet@aerith.net). All rights reserved.